Temp
23 20 20 23 19 19 25 27 29 28 28 24 25 23 23 22 24 19 21 20 20 20 20 20 20 20 20 19 19 18 19 19 19 19 19 19 19 19 19 18 18 18 18 18 18 18 18 18 19
23 20 21 19 19 21 22 29 27 28 28 25 26 25 24 21 22 22 20 21 21 21 20 20 20 20 20 19 19 19 19 19 19 19 19 19 19 18 19 18 18 18 18 18 18 18 19 19 19
23 22 22 19 21 23 25 27 27 29 29 28 23 25 25 23 22 22 20 21 21 21 21 20 20 20 19 19 19 19 19 19 19 19 18 19 19 18 18 18 18 18 18 18 18 18 19 19 19
23 22 21 19 23 27 28 28 29 29 30 27 26 25 24 24 22 22 21 21 21 21 21 20 20 20 19 19 18 19 19 19 19 19 18 19 19 18 19 18 18 18 18 18 18 18 18 19 19
22 19 20 23 27 30 30 30 30 29 28 26 26 24 23 23 22 21 21 21 22 21 21 21 20 19 19 19 19 19 19 19 19 18 18 18 19 19 19 19 19 19 19 19 18 18 18 19 19
22 20 23 25 30 31 30 31 31 30 27 26 25 24 23 23 23 22 22 21 21 21 21 21 19 19 19 19 19 19 19 19 19 18 19 18 18 18 19 19 19 19 19 19 19 19 19 19 19
19 17 20 26 27 29 31 32 31 30 29 27 25 23 23 23 23 22 22 22 21 22 21 21 20 19 19 19 18 19 19 19 19 19 19 19 18 18 19 20 20 20 20 20 20 20 20 20 19
22 19 21 26 27 29 31 31 31 30 29 27 26 23 23 23 23 23 21 21 21 21 21 21 20 19 19 18 18 18 18 18 18 19 19 18 18 19 20 20 20 20 20 20 20 20 20 19 18
23 20 20 27 28 30 32 30 30 30 30 29 28 25 24 24 24 24 22 21 21 21 22 22 21 20 20 19 19 19 19 18 18 20 20 19 20 20 20 20 20 20 20 20 20 21 20 18 19
21 21 25 30 29 27 32 30 30 30 29 28 26 25 24 24 24 24 24 22 21 21 21 21 21 21 21 20 20 20 19 19 20 20 20 19 19 19 20 20 20 20 20 20 20 21 19 19 20
20 24 28 30 31 31 32 31 30 28 27 27 26 25 24 24 24 24 24 24 23 22 22 21 22 21 21 21 21 21 20 20 21 20 19 18 18 19 20 20 20 20 20 20 21 21 20 20 20
23 26 27 33 32 32 31 31 29 28 28 28 26 25 25 24 24 24 24 24 24 22 23 22 22 21 20 20 21 21 21 21 21 20 19 19 19 20 20 20 20 20 21 21 21 21 20 20 20
25 28 32 33 33 32 31 30 31 30 29 28 26 26 25 25 25 25 25 25 24 24 23 22 22 22 21 20 21 21 21 20 21 21 20 19 19 20 20 20 20 21 21 21 20 21 20 20 20
29 29 28 32 30 33 30 27 29 27 28 27 27 26 26 26 26 25 25 25 24 24 24 22 22 21 21 21 21 20 20 20 20 21 21 20 20 20 20 20 21 21 21 21 21 21 21 20 20
26 25 26 31 28 29 30 25 26 27 27 28 27 27 27 26 26 26 26 25 25 24 24 23 22 22 21 21 21 21 21 21 20 21 20 21 20 20 20 21 21 21 21 21 21 21 20 20 20
24 23 22 27 27 28 28 24 24 26 26 26 28 28 27 27 27 27 26 26 25 24 24 23 23 22 22 21 21 21 21 21 21 20 20 20 20 20 20 20 20 21 20 21 21 20 19 20 20
22 22 23 25 29 27 25 24 26 25 26 27 27 28 28 28 28 27 26 26 25 25 24 23 23 23 22 21 21 21 21 20 20 20 20 21 21 21 21 21 20 20 21 21 20 20 20 21 21
22 24 24 24 26 27 27 22 23 24 23 25 25 25 28 28 28 27 26 26 26 25 24 23 23 22 22 21 21 20 21 21 20 21 21 21 21 22 22 21 20 20 20 20 20 19 20 20 21
23 26 26 27 28 29 27 22 23 22 23 24 27 25 25 28 28 27 27 26 26 25 24 24 23 22 21 21 20 20 20 21 21 21 21 21 21 21 21 21 20 19 20 21 21 20 20 20 20
24 26 28 31 30 29 26 25 24 23 21 23 26 24 25 27 28 27 27 26 26 25 24 24 23 22 21 21 21 21 20 20 21 21 21 21 21 20 20 20 20 20 19 20 20 20 20 20 20
28 31 30 31 31 29 29 25 24 24 22 23 25 25 25 28 27 27 27 26 26 25 24 24 24 22 22 21 21 21 20 20 21 21 21 21 21 22 20 20 20 20 20 20 20 20 20 19 19
30 32 33 32 29 27 28 25 24 25 25 27 28 24 27 28 28 27 27 27 26 26 25 24 24 24 23 21 21 21 21 20 20 21 22 22 21 21 20 20 20 21 21 20 20 20 19 19 19
31 33 32 32 28 26 28 24 26 25 26 26 29 31 30 28 28 28 28 27 26 26 26 25 24 23 23 22 21 21 21 21 21 21 21 22 21 20 20 20 18 19 20 19 19 18 18 19 18
34 32 30 30 24 22 27 26 26 25 27 29 29 31 31 31 29 28 29 28 26 26 26 23 23 23 23 23 21 20 20 20 20 20 19 19 19 18 18 18 17 17 17 18 18 18 18 17 18
31 28 27 23 24 22 28 27 26 28 29 29 29 31 30 30 30 28 28 26 24 24 22 22 22 22 23 22 20 21 20 20 20 19 18 19 18 18 18 18 18 17 17 17 17 18 17 17 16
30 30 25 27 25 27 30 27 27 29 32 32 32 31 30 30 30 28 27 26 25 25 24 23 23 21 22 20 20 20 19 20 21 18 18 17 17 17 16 17 18 17 17 16 16 16 16 15 15
32 27 30 29 29 27 29 29 30 29 29 31 32 31 30 29 29 28 27 26 25 25 25 23 22 22 21 20 19 19 19 19 20 18 18 19 19 17 15 16 15 16 16 15 15 15 15 15 15
32 32 27 25 27 28 28 29 26 29 28 29 30 29 30 29 28 27 27 25 24 24 23 22 22 21 21 20 20 19 19 18 19 18 19 19 18 17 14 16 15 16 16 14 15 15 15 14 14
31 29 29 27 26 26 25 26 27 28 29 30 26 29 28 27 27 26 26 25 23 22 20 20 20 21 21 21 21 19 18 17 18 18 19 19 18 14 15 16 14 15 15 14 14 14 15 14 14
33 33 30 23 26 25 24 25 31 28 29 27 27 28 27 26 26 26 25 24 23 22 21 20 19 19 18 19 19 18 17 16 17 18 18 18 18 16 15 15 15 15 15 15 15 14 14 14 14
Height
1515 1515 1512 1509 1522 1520 1509 1500 1487 1492 1495 1502 1499 1502 1513 1516 1508 1532 1531 1537 1539 1541 1545 1548 1549 1551 1552 1554 1556 1558 1558 1559 1559 1561 1563 1565 1567 1568 1569 1570 1572 1572 1573 1574 1576 1576 1577 1578 1580
1518 1518 1520 1520 1531 1532 1526 1494 1500 1497 1498 1499 1501 1503 1512 1522 1515 1521 1530 1536 1540 1541 1544 1547 1549 1551 1553 1554 1556 1558 1559 1559 1560 1562 1564 1566 1567 1569 1570 1572 1573 1574 1576 1576 1577 1578 1578 1581 1583
1518 1520 1522 1526 1523 1522 1515 1500 1502 1499 1498 1499 1509 1513 1516 1521 1524 1524 1530 1536 1540 1543 1545 1547 1548 1551 1552 1554 1556 1557 1559 1560 1561 1562 1564 1566 1568 1570 1572 1573 1575 1577 1578 1579 1580 1580 1582 1585 1586
1521 1524 1528 1530 1521 1499 1495 1496 1496 1496 1497 1501 1507 1516 1522 1522 1524 1526 1532 1537 1539 1542 1545 1547 1549 1551 1552 1554 1556 1558 1559 1560 1561 1563 1565 1568 1569 1571 1573 1575 1578 1580 1581 1582 1582 1583 1584 1587 1589
1525 1525 1531 1516 1500 1491 1488 1490 1493 1494 1498 1504 1508 1519 1522 1524 1527 1529 1532 1537 1539 1542 1545 1548 1549 1551 1553 1554 1556 1558 1559 1560 1562 1564 1567 1569 1571 1572 1574 1577 1579 1581 1582 1583 1584 1584 1586 1587 1589
1517 1525 1522 1520 1496 1490 1490 1489 1491 1496 1501 1508 1512 1518 1525 1527 1528 1531 1532 1535 1539 1541 1543 1547 1549 1551 1553 1555 1556 1558 1559 1561 1562 1565 1567 1569 1572 1574 1576 1578 1580 1582 1582 1585 1586 1587 1587 1589 1592
1516 1528 1530 1509 1504 1494 1489 1488 1492 1496 1501 1507 1512 1519 1527 1528 1531 1531 1533 1535 1539 1541 1542 1545 1548 1550 1553 1555 1557 1558 1559 1560 1562 1565 1568 1570 1573 1576 1577 1579 1581 1582 1583 1585 1586 1587 1588 1591 1593
1506 1516 1519 1504 1504 1500 1490 1491 1495 1498 1501 1506 1507 1516 1524 1528 1532 1534 1534 1534 1537 1541 1543 1545 1548 1550 1553 1555 1558 1559 1560 1561 1563 1566 1568 1571 1574 1577 1578 1580 1582 1583 1583 1585 1587 1588 1589 1591 1592
1513 1520 1524 1504 1499 1492 1491 1494 1499 1502 1502 1505 1504 1510 1520 1527 1532 1534 1537 1537 1538 1540 1543 1546 1548 1551 1553 1555 1557 1558 1560 1562 1564 1567 1569 1572 1575 1578 1580 1582 1583 1583 1583 1585 1586 1588 1588 1589 1590
1517 1519 1505 1489 1484 1501 1491 1493 1498 1501 1504 1508 1510 1517 1521 1527 1531 1533 1536 1536 1537 1538 1542 1545 1547 1549 1551 1554 1557 1558 1560 1562 1564 1567 1570 1572 1575 1578 1581 1583 1584 1584 1584 1585 1585 1587 1586 1588 1589
1519 1509 1495 1489 1485 1490 1488 1493 1497 1499 1502 1506 1513 1517 1522 1526 1529 1532 1534 1536 1537 1538 1539 1543 1546 1547 1550 1552 1555 1558 1560 1561 1564 1566 1569 1572 1574 1577 1581 1583 1585 1585 1585 1585 1585 1586 1586 1587 1591
1517 1496 1490 1482 1485 1487 1495 1498 1498 1496 1500 1505 1510 1517 1521 1525 1528 1530 1532 1534 1537 1538 1538 1541 1544 1545 1548 1551 1554 1556 1558 1560 1562 1565 1567 1570 1573 1577 1580 1583 1585 1586 1586 1586 1586 1586 1586 1588 1591
1507 1499 1486 1483 1484 1489 1493 1497 1497 1499 1502 1507 1512 1518 1522 1524 1526 1529 1530 1532 1535 1539 1540 1540 1544 1544 1546 1550 1554 1555 1556 1558 1560 1563 1565 1568 1572 1577 1580 1583 1583 1584 1586 1586 1586 1586 1584 1588 1589
1496 1496 1490 1486 1491 1490 1497 1503 1498 1510 1511 1509 1513 1518 1522 1523 1525 1528 1530 1532 1534 1538 1541 1542 1544 1544 1547 1551 1552 1554 1555 1557 1558 1561 1564 1568 1571 1574 1578 1580 1582 1583 1584 1585 1586 1586 1586 1587 1586
1497 1498 1495 1491 1495 1498 1500 1508 1509 1509 1513 1511 1510 1515 1519 1523 1524 1526 1529 1532 1534 1537 1541 1541 1544 1545 1545 1549 1552 1554 1556 1558 1559 1560 1562 1565 1568 1571 1574 1577 1580 1580 1582 1583 1585 1584 1584 1586 1586
1508 1507 1523 1495 1495 1498 1500 1522 1507 1507 1509 1514 1512 1512 1515 1519 1523 1525 1527 1531 1533 1535 1537 1539 1542 1545 1546 1546 1549 1551 1554 1556 1558 1558 1560 1563 1566 1568 1572 1575 1578 1579 1581 1583 1583 1584 1582 1585 1587
1518 1528 1520 1503 1489 1494 1503 1516 1500 1501 1506 1508 1513 1513 1515 1516 1520 1525 1527 1528 1531 1533 1535 1535 1537 1540 1542 1544 1546 1549 1550 1553 1556 1557 1558 1560 1562 1564 1568 1572 1575 1577 1579 1578 1580 1583 1582 1583 1584
1531 1518 1514 1513 1496 1497 1508 1520 1513 1507 1514 1514 1511 1516 1517 1515 1516 1517 1520 1525 1528 1530 1533 1535 1534 1536 1539 1542 1544 1546 1547 1549 1553 1555 1556 1558 1560 1562 1565 1568 1570 1573 1574 1575 1575 1577 1581 1583 1582
1510 1511 1508 1497 1492 1500 1504 1510 1506 1514 1517 1514 1504 1509 1516 1518 1515 1516 1517 1516 1521 1524 1527 1529 1532 1533 1535 1538 1540 1542 1544 1548 1550 1554 1555 1557 1558 1560 1562 1565 1567 1568 1571 1573 1576 1574 1575 1580 1578
1509 1505 1500 1483 1485 1497 1502 1508 1504 1509 1499 1506 1491 1501 1508 1514 1507 1511 1513 1516 1516 1518 1520 1522 1523 1526 1529 1532 1536 1540 1544 1547 1550 1553 1556 1556 1558 1559 1561 1563 1563 1563 1565 1568 1568 1572 1571 1573 1574
1499 1494 1491 1486 1481 1486 1489 1505 1509 1504 1498 1502 1497 1498 1504 1501 1500 1506 1506 1510 1511 1512 1515 1515 1518 1522 1526 1530 1535 1538 1542 1544 1548 1552 1553 1555 1556 1557 1558 1558 1560 1561 1560 1562 1562 1565 1568 1567 1568
1499 1478 1479 1480 1492 1510 1486 1531 1506 1493 1492 1493 1489 1491 1495 1496 1501 1502 1501 1502 1500 1508 1512 1516 1519 1519 1523 1527 1530 1533 1536 1538 1543 1548 1550 1552 1552 1554 1555 1554 1555 1555 1558 1557 1559 1560 1563 1561 1561
1489 1474 1479 1478 1493 1505 1498 1521 1505 1496 1497 1492 1484 1488 1492 1498 1495 1497 1498 1498 1504 1504 1502 1508 1516 1518 1522 1525 1525 1530 1532 1535 1539 1544 1546 1547 1550 1552 1550 1550 1551 1551 1554 1554 1555 1558 1558 1556 1557
1470 1475 1476 1485 1511 1541 1500 1505 1508 1504 1490 1482 1481 1484 1489 1490 1492 1493 1493 1496 1503 1506 1513 1517 1514 1515 1515 1522 1526 1529 1531 1533 1536 1540 1544 1546 1548 1549 1548 1548 1547 1548 1549 1550 1551 1552 1552 1551 1552
1475 1488 1517 1550 1536 1543 1483 1504 1498 1480 1476 1478 1480 1481 1485 1488 1489 1486 1488 1493 1505 1504 1510 1516 1517 1511 1513 1516 1525 1518 1526 1525 1530 1531 1534 1537 1539 1545 1545 1544 1543 1542 1544 1546 1547 1548 1547 1548 1549
1482 1486 1522 1535 1537 1514 1475 1510 1497 1474 1474 1475 1476 1477 1482 1486 1486 1486 1490 1496 1500 1502 1503 1503 1500 1507 1510 1512 1515 1517 1515 1515 1520 1518 1523 1531 1532 1537 1540 1538 1537 1537 1538 1544 1544 1545 1545 1545 1546
1481 1500 1476 1498 1488 1509 1495 1490 1479 1477 1477 1475 1475 1476 1480 1484 1486 1487 1490 1493 1497 1501 1500 1497 1499 1503 1504 1506 1509 1509 1508 1509 1512 1511 1521 1520 1524 1527 1529 1533 1529 1527 1529 1534 1536 1540 1541 1542 1544
1474 1470 1505 1505 1527 1527 1510 1503 1510 1486 1482 1474 1474 1476 1479 1482 1485 1488 1489 1490 1492 1493 1494 1495 1496 1497 1500 1501 1500 1502 1502 1505 1508 1510 1517 1519 1522 1524 1529 1527 1527 1523 1525 1530 1534 1539 1539 1540 1541
1481 1489 1488 1495 1506 1530 1538 1520 1479 1478 1473 1472 1476 1476 1478 1481 1484 1487 1489 1491 1493 1494 1494 1493 1495 1496 1495 1495 1496 1495 1497 1501 1504 1507 1513 1516 1516 1519 1522 1524 1526 1523 1523 1527 1531 1534 1536 1537 1538
1463 1473 1481 1524 1519 1509 1519 1518 1468 1470 1469 1471 1474 1477 1479 1480 1483 1486 1488 1488 1488 1489 1489 1490 1490 1490 1492 1492 1490 1489 1492 1497 1500 1504 1508 1511 1511 1513 1518 1521 1523 1521 1523 1524 1525 1529 1533 1533 1537
Wind_Speed
4 4 5 10 5 3 3 7 7 12 10 19 26 12 9 17 3 6 24 22 23 24 20 18 16 16 16 16 15 14 13 11 10 10 10 11 11 10 10 10 9 10 9 9 9 8 8 7 7
3 1 5 6 1 1 7 12 12 14 18 33 24 13 10 1 15 34 31 17 24 24 20 17 16 16 16 16 15 14 13 11 9 11 12 12 12 12 12 12 12 12 10 10 10 9 7 8 9
8 3 3 2 4 3 7 12 11 12 14 22 9 16 8 19 33 32 30 22 21 17 18 16 16 16 16 15 15 14 12 11 10 12 12 12 12 14 13 13 13 12 13 14 14 11 10 9 11
8 6 5 2 7 4 13 10 16 10 14 32 29 14 24 26 22 32 30 23 15 16 16 15 16 17 16 16 15 14 12 12 13 13 13 13 12 14 12 12 12 12 14 13 13 12 11 11 11
13 2 5 5 7 7 8 20 17 10 21 31 32 19 25 23 32 29 26 22 17 17 12 14 18 17 16 16 15 14 13 13 13 13 13 12 12 13 12 12 12 12 11 11 11 11 10 10 10
6 3 3 3 14 10 9 11 20 21 32 30 28 24 22 25 28 29 25 22 15 17 15 13 18 17 16 16 15 15 13 13 13 13 11 12 11 12 10 10 10 10 9 10 9 9 9 9 9
7 3 4 10 16 10 4 4 18 15 23 19 27 15 22 26 24 25 23 21 18 13 16 17 18 18 16 16 14 14 14 13 14 12 10 13 12 11 10 9 10 9 8 9 9 9 9 10 10
5 4 4 6 6 6 8 20 23 18 15 30 31 8 19 27 24 23 27 21 16 15 13 17 17 17 16 15 14 13 13 13 12 11 12 13 11 10 11 11 12 11 11 11 11 10 8 9 6
10 1 3 4 2 6 13 18 20 16 13 17 9 34 34 28 25 21 28 25 18 16 12 16 9 13 14 14 14 13 12 13 12 11 12 13 13 13 13 12 12 10 10 12 12 13 10 4 3
4 3 6 7 8 12 17 22 19 13 16 23 28 32 32 31 24 21 24 27 24 19 11 11 13 14 12 14 12 12 12 12 11 12 14 16 14 10 11 10 9 8 8 10 10 10 5 7 9
2 6 10 13 15 13 17 20 10 11 2 28 31 34 31 29 25 21 22 20 18 21 15 13 12 12 15 16 9 10 9 12 14 17 16 12 6 7 4 7 5 5 8 9 12 10 6 8 13
6 16 12 3 13 23 10 10 13 20 12 30 32 29 30 28 27 21 23 23 18 26 16 18 14 16 16 13 9 13 10 11 13 19 16 11 12 10 5 2 3 4 5 7 10 8 4 7 5
21 11 5 6 7 15 23 11 12 24 29 27 27 25 26 25 24 20 20 24 20 19 19 25 18 19 17 21 11 10 10 8 6 14 15 17 16 11 16 9 9 4 0 3 1 3 7 5 7
7 9 21 4 22 12 14 16 17 18 13 26 23 24 23 25 22 25 21 24 25 23 19 20 20 22 14 21 15 13 17 12 10 9 12 14 19 13 16 14 14 8 8 5 6 7 0 2 10
6 7 15 10 20 8 7 7 5 11 10 23 24 24 23 25 22 26 21 25 24 24 23 20 28 23 22 22 23 17 18 16 15 12 9 16 20 17 14 13 12 7 7 7 2 1 0 4 5
4 6 5 2 6 7 11 1 8 8 11 12 24 26 26 26 21 26 22 22 23 25 26 27 28 24 26 27 25 26 20 22 17 16 13 12 18 15 16 12 9 6 9 8 5 6 6 1 3
6 2 3 10 6 2 5 6 20 13 13 11 10 24 26 24 23 25 22 21 22 25 26 28 27 27 24 33 29 29 26 20 15 21 18 14 13 21 15 15 11 7 10 9 5 5 6 7 3
7 4 4 6 4 4 1 12 3 15 11 11 13 5 21 26 24 27 23 22 23 24 25 26 25 23 21 22 30 30 32 28 21 18 17 14 11 12 14 14 12 9 11 11 10 9 9 8 5
10 6 6 8 13 2 3 14 17 13 7 14 25 23 17 20 24 27 25 26 28 29 27 28 27 24 23 21 21 26 32 29 25 23 22 19 17 15 9 12 17 15 14 13 15 17 11 9 7
11 10 6 5 1 8 4 8 14 22 26 19 32 33 26 28 26 33 29 28 32 34 32 30 29 29 28 27 21 23 26 24 24 18 23 21 21 15 12 12 17 18 15 14 14 16 15 11 9
14 4 8 5 13 15 5 2 8 17 23 30 31 34 29 39 26 31 33 33 34 36 35 32 25 30 32 29 23 21 23 20 17 21 20 25 23 22 18 16 18 20 15 14 12 16 15 12 10
4 6 6 8 4 2 7 1 6 5 5 8 24 43 41 38 22 32 38 37 40 38 34 30 23 24 29 31 28 25 27 25 22 22 23 27 30 25 19 21 22 19 21 17 17 17 14 12 11
7 5 6 9 15 8 4 5 5 4 5 7 14 19 14 11 31 37 42 28 34 37 37 34 25 25 26 32 30 26 29 24 18 21 19 18 31 27 25 21 21 18 18 15 15 15 16 13 13
7 9 8 5 7 2 8 5 4 5 7 5 12 10 4 6 5 24 34 22 33 33 30 35 28 30 28 30 32 26 26 23 19 13 11 12 17 20 22 24 18 19 19 19 18 18 17 15 14
10 7 4 4 1 6 5 6 7 8 8 8 8 10 9 6 12 22 13 30 19 32 31 26 31 35 34 32 36 32 33 24 16 21 20 18 19 21 23 23 19 15 14 16 19 19 18 17 15
7 2 3 3 4 4 4 6 5 9 16 15 12 14 12 10 9 21 19 10 28 36 29 27 40 43 37 40 38 40 34 31 25 30 27 32 22 16 19 19 19 14 11 17 19 18 17 15 12
6 5 6 2 5 5 3 6 6 9 7 8 8 15 17 15 13 12 12 11 8 19 23 29 32 39 40 47 41 48 43 28 18 31 35 38 35 26 24 31 27 28 21 15 11 12 10 8 9
6 4 6 6 3 5 4 3 6 6 7 7 7 16 16 15 15 13 11 9 5 7 13 23 24 29 36 44 39 41 38 25 22 28 28 15 20 19 20 12 13 9 10 14 14 11 11 14 12
2 3 4 1 2 1 2 5 8 8 7 6 13 18 18 17 14 9 5 3 4 5 5 9 15 20 26 33 35 37 34 26 22 30 33 12 18 14 15 12 8 9 9 13 15 15 11 11 12
5 4 4 5 7 3 5 5 8 8 6 22 19 16 18 12 8 4 3 5 9 10 11 10 10 14 21 24 27 33 32 28 31 35 26 20 12 13 14 10 9 8 10 9 10 11 9 11 14
Wind_Direction
156 67 37 127 33 242 291 121 107 88 65 79 81 71 71 7 119 152 151 169 160 155 153 148 145 145 142 146 154 151 140 131 121 127 129 130 128 127 124 119 115 115 121 128 135 138 135 132 123
186 109 89 86 238 29 315 91 89 91 104 103 85 97 70 47 107 131 146 158 154 150 147 147 142 142 146 147 153 154 147 141 132 133 128 130 129 129 124 122 116 110 106 111 124 128 125 123 115
100 113 327 164 220 252 107 99 98 119 130 116 105 120 79 110 121 137 156 149 133 144 146 146 145 146 146 147 148 148 148 148 145 133 135 131 132 123 119 118 118 113 103 97 101 105 103 107 106
70 67 310 229 262 239 117 132 133 145 97 102 109 90 124 126 118 146 153 146 148 138 149 145 154 151 148 144 145 144 150 150 143 141 136 134 130 124 122 123 117 109 103 97 98 97 96 95 98
152 280 243 227 132 86 131 145 153 133 101 101 104 99 100 127 135 140 154 155 144 132 145 153 158 153 150 145 145 144 149 147 145 142 139 135 127 128 124 127 124 115 108 102 97 98 93 92 95
108 147 302 284 100 91 77 71 107 95 104 106 106 107 115 125 130 154 166 159 153 145 150 162 156 151 152 149 151 152 153 150 150 148 146 145 137 129 132 134 129 121 114 104 96 92 89 78 69
104 102 263 297 36 81 89 92 114 122 120 127 125 112 132 137 141 156 165 160 151 134 162 163 159 153 155 153 156 152 153 153 150 150 146 145 138 136 129 130 125 119 109 98 89 81 77 73 60
144 111 289 298 96 84 72 76 84 97 123 136 138 139 150 150 148 151 164 161 143 132 135 159 158 158 158 155 156 157 161 160 156 155 154 142 135 128 125 119 110 105 95 81 74 70 58 53 53
131 70 239 266 5 137 129 89 85 103 121 149 137 145 147 149 152 158 157 154 151 137 123 138 156 159 159 160 160 159 157 155 161 160 156 134 124 117 115 105 103 97 88 75 65 64 60 63 24
155 227 245 201 191 72 130 124 129 117 97 88 115 137 144 153 155 164 156 157 159 157 155 131 133 160 160 159 160 164 166 166 168 153 146 131 120 104 104 80 82 87 72 47 52 49 30 6 15
232 206 195 216 205 153 106 117 118 108 127 130 133 140 150 157 163 167 166 169 171 180 168 167 141 136 153 142 141 160 160 162 159 152 143 133 120 125 103 84 85 102 61 46 43 35 5 32 18
263 246 259 140 178 111 114 128 145 145 167 142 145 150 157 163 173 170 180 174 175 180 186 182 163 149 178 168 160 149 135 150 159 164 153 149 150 166 187 211 141 85 51 48 37 19 5 359 82
245 318 208 58 84 110 117 201 97 96 127 137 143 154 165 170 180 176 186 175 175 181 178 194 163 162 182 195 171 158 170 182 158 181 177 159 156 171 193 189 167 145 64 342 190 322 309 339 31
170 353 347 306 17 121 59 31 64 26 105 137 145 163 174 181 186 185 184 180 182 179 184 183 163 172 181 191 171 203 214 204 196 205 215 194 169 178 201 192 192 183 162 209 261 5 63 10 17
42 22 342 41 26 46 38 14 103 326 346 152 161 173 186 189 188 186 190 185 186 179 182 185 174 184 168 184 189 178 176 186 205 219 225 205 185 184 208 195 167 167 206 222 303 209 195 13 43
38 79 332 281 355 66 28 76 290 304 304 308 180 183 188 191 192 186 181 190 188 187 187 199 209 204 205 201 194 190 182 196 214 215 225 214 200 203 197 203 183 207 216 251 217 217 105 223 29
1 2 329 306 92 120 133 159 219 224 213 249 256 192 190 189 190 185 184 186 193 193 194 200 212 217 226 217 212 204 193 188 209 213 219 226 228 219 210 198 189 224 224 229 231 175 191 192 231
272 180 231 263 310 250 330 30 118 266 326 292 275 308 197 194 189 185 186 192 200 197 200 202 208 218 224 227 222 217 210 203 198 219 223 227 229 218 223 199 197 216 232 220 215 173 205 240 253
241 248 219 247 225 213 72 169 196 177 72 348 288 276 263 216 194 196 192 187 197 196 201 203 210 216 221 225 220 208 209 205 201 213 226 235 237 238 226 210 208 224 240 243 240 241 239 262 279
227 222 245 219 154 168 207 182 185 161 174 189 228 242 241 200 199 199 194 194 199 198 203 208 213 214 217 224 226 209 198 202 211 210 217 230 235 223 223 221 216 227 231 244 248 256 258 258 272
243 311 301 304 161 192 148 14 129 198 197 198 222 229 219 193 202 198 188 197 203 206 208 212 214 214 218 223 224 219 200 204 213 216 224 231 226 243 227 231 235 233 218 244 254 258 252 255 270
279 222 304 317 107 221 134 237 312 248 325 202 231 218 202 195 206 204 193 199 206 208 214 217 220 218 217 219 219 209 192 200 218 235 238 244 226 222 224 236 241 254 256 255 248 253 260 266 279
253 325 281 283 61 352 204 101 260 59 297 275 80 68 65 176 197 201 201 233 197 209 217 217 223 220 220 220 218 207 201 204 223 239 249 237 227 231 234 234 242 247 255 246 243 245 255 263 274
293 293 292 56 94 292 210 118 257 182 195 108 96 85 19 348 152 221 231 229 199 217 221 213 233 224 226 218 215 207 207 213 222 247 237 243 246 245 227 228 223 215 217 213 230 246 252 259 264
344 351 23 48 263 211 206 167 211 152 120 125 158 165 155 113 65 56 220 210 190 181 207 219 226 238 233 215 207 199 215 189 199 229 225 234 234 238 238 234 227 217 220 238 245 254 260 264 261
280 293 119 282 237 289 226 140 222 145 153 169 179 186 158 121 80 59 76 194 194 199 232 240 225 247 233 222 205 203 198 201 253 243 230 231 223 241 260 257 246 244 264 272 259 256 248 243 235
316 347 253 247 284 76 103 42 62 108 118 118 120 92 119 118 104 84 60 95 191 222 241 236 217 231 235 228 213 207 213 226 255 240 227 252 244 250 247 260 249 257 260 252 251 242 226 208 206
176 246 3 355 9 344 343 113 171 158 163 163 117 108 98 109 100 96 78 81 106 185 221 232 232 236 231 228 226 216 213 223 257 227 227 241 231 243 238 230 220 203 245 229 227 237 250 234 213
155 300 31 87 102 185 8 294 181 174 167 166 119 113 104 101 100 98 87 91 110 96 168 219 235 232 232 237 238 227 223 227 241 223 219 252 253 227 226 205 237 231 215 220 226 228 249 210 190
229 98 88 119 297 284 146 284 167 181 158 116 116 104 113 113 104 68 341 266 258 268 272 260 255 244 247 251 240 230 231 234 225 218 222 239 252 222 211 216 273 211 185 189 201 223 213 191 189